Погода в Новой Деревне

Россия / Ставропольский край     44°31′48″N   41°51′15″E
темп.,
°C
ветер,
м/с
пор.,
м/с
влажн.,
%
обл.,
%
осадки,
мм/ч
давл.,
гПа
погр.,
м
6 мая, чт
чт600:00+7вюв23880 0.0 101639
03:00+6вюв35880 0.0 101592
06:00+7вюв39871 0.0 1015236
09:00+14вюв566654 0.0 1013593
12:00+18в44515 0.0 10121025
15:00+19в435040 0.0 10111177
18:00+16в3569100 0.0 1012151
21:00+11вюв2271100 0.0 101327
7 мая, пт
пт700:00+10юв2276100 0.0 101426
03:00+10ю118167 0.0 101411
06:00+11з228693 0.0 101655
09:00+15зсз457251 0.1 1017553
12:00+18ссз44527 0.0 1017958
15:00+18сз446036 0.0 10171341
18:00+16ссз347489 0.1 1018156
21:00+14всв007399 0.2 101911
8 мая, сб
сб800:00+11ююв22845 0.0 101912
03:00+10юв22921 0.0 101722
06:00+11юв259220 0.0 1016121
09:00+17вюв336764 0.0 1015578
12:00+21в3356100 0.0 10131007
15:00+21в3354100 0.0 10121312
18:00+19в347029 0.0 1012117
21:00+14юв228199 0.0 101315
9 мая, вс
вс900:00+13ююв33865 0.0 101143
03:00+12ю348764 0.0 101057
06:00+12з51069100 0.0 1009279
09:00+11зсз5889100 0.3 1011411
12:00+15сз4577100 0.3 1010821
15:00+6з101793100 1.1 1016746
18:00+4з71296100 4.3 10201214
21:00+4з81297100 5.9 10231166
10 мая, пн
пн1000:00+4з81293100 0.4 1024855
03:00+4з71192100 0.5 1024946
06:00+5з71186100 0.1 1024709
09:00+6зюз7108679 0.1 1023769
12:00+11зсз91161100 0.4 10201744
15:00+9зсз81373100 0.7 10201293
18:00+5зсз81485100 0.1 10211091
21:00+4з81693100 0.3 1020966